Wind_Speed
30 31 30 29 29 29 27 27 27 29 33 34 37 37 36 36 28 26 27 22 24 32 44 47 47 60 55 53 50 43 43 42 40 38 35 36 40 40 42 42 44 45 47 48
31 30 31 29 28 29 27 25 27 30 30 29 33 31 32 36 24 25 22 25 19 27 39 42 43 53 45 50 50 40 40 41 40 37 38 36 37 37 42 45 45 45 46 48
31 31 31 28 27 28 27 26 28 29 30 28 30 30 29 32 20 20 24 18 29 24 36 37 47 50 50 44 42 38 39 42 41 40 37 38 38 38 45 41 42 46 45 46
28 28 28 27 26 27 27 25 27 29 30 27 27 30 29 25 20 20 29 13 6 21 41 45 58 62 23 46 44 43 43 43 43 39 37 38 40 39 44 43 44 36 44 53
26 27 24 25 25 26 26 27 27 29 29 23 24 26 28 22 21 24 18 10 12 10 40 51 45 50 40 32 42 47 40 40 42 44 39 38 38 42 41 42 47 51 54 47
25 25 23 22 25 25 24 24 26 27 27 24 19 21 23 25 19 10 2 18 6 20 29 36 28 31 44 43 44 33 38 37 48 40 28 37 36 39 42 45 46 52 51 49
22 22 22 22 24 25 25 24 25 26 27 20 17 17 18 20 18 9 9 10 15 6 2 1 11 38 39 40 39 46 39 39 44 41 48 43 42 38 38 39 41 46 48 52
24 21 20 22 22 24 25 23 25 25 26 24 17 14 14 11 15 11 3 10 3 5 9 13 10 27 43 34 30 30 31 38 42 44 44 43 44 42 45 45 40 48 47 50
24 21 20 21 21 22 25 21 23 23 23 24 19 13 12 12 10 12 7 9 14 16 14 20 7 19 2 11 13 23 24 31 32 54 53 49 40 45 44 43 43 40 45 40
21 18 17 19 20 24 25 24 23 24 22 25 19 14 12 14 11 11 11 6 6 6 9 10 14 15 9 4 12 7 19 25 26 22 36 61 52 48 46 42 43 42 48 43
16 15 15 17 21 24 25 24 23 23 24 22 24 15 14 13 14 15 12 8 6 5 6 7 1 3 3 7 5 11 12 13 20 18 20 27 32 38 41 42 44 47 48 47
14 14 16 19 23 25 27 25 23 22 23 24 23 17 17 16 14 15 16 14 10 11 9 6 4 4 5 6 10 11 11 11 13 11 15 14 16 19 23 27 25 23 29 32
13 16 17 20 24 26 26 26 24 22 22 22 21 18 17 16 15 16 15 15 16 12 13 13 11 8 10 12 12 12 13 14 15 12 16 16 16 22 23 25 25 25 28 30
16 16 16 19 23 26 26 26 23 23 21 22 22 19 18 17 14 15 18 18 18 18 17 17 17 17 17 18 17 17 17 17 17 18 20 20 18 21 23 24 27 27 29 29
17 16 18 19 22 27 24 25 25 23 22 21 19 20 19 18 15 12 14 18 19 21 20 19 21 23 22 23 23 23 25 24 23 21 19 18 15 15 14 14 15 17 19 20
21 19 21 20 24 28 23 25 26 24 22 21 21 19 20 19 18 16 14 14 16 15 19 19 20 20 20 20 14 8 4 4 5 6 8 9 9 10 11 13 15 16 18 20
23 23 24 21 25 28 22 27 29 24 23 22 19 20 20 20 20 20 19 17 13 16 15 13 11 8 5 5 3 5 6 7 7 6 7 10 12 13 13 14 15 16 17 19
24 26 25 25 26 26 27 30 30 22 21 22 18 19 21 19 20 22 21 20 16 15 15 11 9 6 3 5 7 7 7 8 10 12 13 14 15 15 14 14 16 20 23 25
26 26 28 27 26 27 26 28 28 22 20 21 20 20 21 19 19 21 23 19 17 15 9 8 9 7 5 5 5 5 7 8 11 14 14 14 13 13 16 20 27 30 28 29
26 28 29 27 29 28 27 28 26 21 18 22 19 20 20 20 17 19 20 18 16 13 8 8 8 6 4 4 5 8 11 13 13 14 15 15 15 21 24 28 31 31 31 33
27 29 31 27 30 26 27 31 26 21 22 20 19 20 21 20 18 17 16 16 17 11 9 9 7 5 4 5 8 10 12 14 16 16 17 19 24 27 29 32 36 37 40 42
29 32 30 31 31 29 31 30 27 24 20 21 20 19 21 16 15 15 15 15 14 12 10 9 8 5 7 10 12 14 15 17 17 18 22 26 29 32 35 38 40 44 44 48
30 33 33 31 30 31 33 29 28 24 21 20 18 20 19 15 14 14 13 12 13 13 11 9 9 11 12 14 15 18 20 22 24 28 31 34 37 40 41 43 45 48 52 55
33 35 34 32 29 32 35 33 29 25 22 20 18 18 17 13 12 13 12 12 11 12 12 13 15 17 17 18 20 23 26 28 31 34 37 40 42 44 46 49 51 54 56 59
36 36 31 33 31 37 36 36 32 24 22 22 19 17 16 14 12 12 12 12 14 16 18 18 19 20 20 20 23 26 28 31 35 39 41 43 45 46 49 53 55 57 63 68
34 34 35 36 35 40 35 35 27 23 24 25 19 18 17 16 14 14 16 17 19 21 21 22 23 24 24 25 27 28 32 36 39 41 43 46 47 50 53 53 54 63 67 71
Wind_Direction
316 321 322 326 324 324 325 324 323 319 314 310 313 315 346 340 331 308 297 290 259 227 216 222 221 215 215 218 222 222 239 252 244 236 235 238 241 241 243 246 248 248 249 250
319 323 325 329 325 325 326 325 323 320 321 317 322 331 347 347 329 321 302 277 275 230 214 217 216 205 204 226 226 226 235 246 256 239 238 240 242 241 245 244 248 252 253 254
323 326 327 328 327 327 327 327 323 322 327 328 332 340 353 344 327 334 324 319 254 241 209 212 206 195 203 221 217 228 232 247 249 255 248 242 244 241 246 248 255 255 256 258
324 327 327 330 328 328 326 328 325 327 330 336 340 345 348 346 345 331 329 338 312 232 196 205 200 203 203 206 215 213 234 245 252 255 255 243 244 251 246 246 248 251 256 259
325 326 329 328 327 328 329 328 328 328 330 337 346 349 347 356 349 358 3 342 86 182 195 187 196 198 213 220 226 226 233 246 252 261 263 249 244 246 250 252 248 253 252 264
327 328 327 328 330 327 327 329 328 328 328 333 346 347 343 345 353 0 339 56 109 170 187 191 223 191 206 213 225 227 237 246 257 258 245 253 252 248 252 250 253 251 257 258
328 326 327 332 328 327 326 329 329 328 329 333 339 340 342 338 348 41 8 279 274 212 240 244 190 200 214 216 243 238 232 248 261 255 255 263 239 245 248 246 254 258 260 257
330 329 331 331 329 325 326 331 331 328 327 327 325 338 340 330 349 340 256 284 330 101 102 99 148 213 215 238 232 222 240 245 259 264 257 253 254 244 240 253 256 259 258 262
326 330 335 327 323 326 325 330 328 327 326 324 319 316 313 325 325 324 319 282 287 317 294 308 123 323 221 215 270 253 249 259 274 246 246 238 254 250 248 251 256 269 266 267
326 329 329 325 325 322 322 328 328 324 322 321 323 322 288 297 303 320 323 294 286 330 306 339 320 321 292 258 248 270 263 273 260 272 252 239 243 245 249 252 258 254 267 269
321 329 325 324 322 319 319 322 325 322 321 322 324 320 308 283 287 298 302 319 290 289 297 340 291 237 222 331 325 300 278 269 278 281 259 239 237 241 241 248 247 253 259 260
317 325 326 325 318 318 316 316 317 321 324 320 318 327 308 295 283 284 289 293 304 315 312 287 244 247 313 281 263 262 275 288 281 277 250 241 236 242 243 244 247 245 249 250
311 315 322 325 318 314 309 313 314 316 317 314 309 315 317 306 286 276 279 283 290 286 284 288 287 278 262 253 252 256 262 260 262 268 279 286 288 289 291 292 295 290 288 285
303 306 317 320 320 308 309 311 310 308 313 311 307 306 310 309 299 285 273 270 269 269 270 268 267 268 265 262 260 263 262 264 268 269 271 270 266 264 264 267 273 278 280 282
290 294 306 310 310 304 307 309 305 303 306 307 301 301 302 300 300 291 283 276 271 271 272 271 274 274 274 274 275 273 281 281 284 291 294 291 297 302 304 308 307 303 300 298
285 286 298 302 308 302 306 306 300 302 302 302 297 298 293 293 291 291 287 285 284 286 285 275 274 279 280 283 291 294 311 319 339 337 324 316 305 303 306 305 303 303 301 298
282 285 293 302 300 299 310 303 301 298 295 299 302 295 288 289 289 290 288 282 279 276 271 280 294 301 293 303 324 341 338 332 329 328 334 340 341 337 330 325 323 324 325 325
275 283 285 295 298 299 306 305 303 298 292 295 296 294 290 285 285 285 287 290 281 262 262 270 283 281 298 321 318 322 332 338 340 346 345 342 338 338 341 346 350 343 338 333
272 277 283 291 294 298 308 303 300 294 291 290 291 292 292 285 278 283 282 280 273 268 262 246 241 250 268 276 278 309 325 330 336 339 343 345 348 350 343 338 334 332 328 325
272 275 281 289 292 300 306 296 294 293 290 285 290 292 291 288 283 273 280 277 272 270 267 250 251 243 236 267 311 328 333 334 334 337 335 335 334 330 327 326 327 324 318 316
272 273 279 287 287 295 296 300 294 288 282 284 286 287 287 287 285 276 275 271 270 265 246 245 228 235 259 309 315 316 320 326 330 329 322 320 321 321 320 319 321 320 317 314
270 275 281 282 286 287 296 301 289 282 287 285 287 287 287 288 274 268 266 264 265 263 250 229 231 257 292 299 303 306 313 314 309 307 309 313 316 318 320 320 319 316 313 313
267 269 277 282 284 284 293 297 287 281 282 283 285 284 281 277 267 260 257 257 255 251 239 248 264 271 275 285 294 300 303 307 315 317 317 319 322 321 321 317 315 316 315 315
263 267 276 284 283 280 289 297 282 278 277 275 275 276 276 274 263 255 246 241 237 230 247 258 262 273 283 292 299 302 306 312 316 317 319 319 319 319 318 316 316 316 315 313
262 268 277 277 274 275 292 296 286 279 272 266 268 267 269 265 254 251 254 249 238 239 246 250 255 263 274 283 287 293 305 313 315 316 315 314 315 314 312 313 314 314 315 315
263 268 273 271 271 281 292 290 277 269 266 265 269 267 261 259 257 256 251 246 243 247 249 249 256 267 276 283 290 301 308 309 310 310 310 309 309 309 308 310 315 319 318 318
Height
5737 5734 5730 5726 5722 5718 5713 5709 5704 5697 5691 5684 5678 5672 5662 5653 5645 5638 5632 5631 5631 5637 5647 5657 5666 5681 5693 5701 5708 5715 5721 5726 5730 5735 5739 5743 5747 5752 5755 5759 5762 5765 5767 5769
5732 5729 5725 5722 5718 5713 5709 5704 5699 5693 5686 5679 5673 5665 5655 5648 5640 5634 5627 5626 5627 5631 5640 5652 5663 5679 5691 5691 5702 5709 5715 5719 5723 5729 5732 5736 5740 5744 5747 5751 5754 5757 5759 5761
5727 5724 5720 5717 5713 5709 5706 5700 5694 5689 5681 5675 5669 5662 5651 5645 5637 5633 5624 5618 5620 5626 5636 5649 5660 5674 5681 5681 5696 5705 5710 5713 5718 5721 5726 5729 5733 5737 5740 5744 5747 5749 5751 5752
5723 5720 5716 5713 5710 5706 5701 5696 5691 5684 5677 5671 5667 5659 5652 5646 5638 5631 5625 5621 5618 5622 5630 5643 5653 5662 5654 5682 5692 5701 5706 5710 5712 5715 5719 5722 5726 5729 5732 5735 5736 5737 5741 5742
5719 5715 5712 5710 5705 5702 5699 5693 5688 5682 5675 5671 5665 5660 5654 5648 5642 5638 5632 5627 5624 5628 5631 5644 5656 5663 5674 5683 5686 5690 5699 5704 5706 5709 5711 5714 5717 5721 5724 5727 5728 5730 5731 5733
5713 5711 5708 5705 5703 5699 5696 5690 5686 5680 5674 5670 5665 5662 5656 5651 5647 5644 5642 5638 5638 5639 5644 5650 5654 5660 5672 5675 5676 5684 5693 5697 5699 5701 5701 5707 5712 5713 5714 5715 5719 5722 5723 5725
5710 5708 5705 5703 5700 5697 5693 5687 5683 5680 5674 5670 5666 5663 5659 5653 5650 5648 5646 5646 5647 5646 5650 5649 5644 5660 5668 5672 5676 5679 5685 5689 5693 5694 5697 5701 5704 5705 5706 5704 5710 5713 5714 5716
5706 5706 5701 5700 5698 5695 5691 5687 5683 5679 5675 5670 5667 5664 5662 5658 5652 5652 5650 5649 5650 5647 5647 5650 5652 5659 5664 5672 5667 5670 5676 5682 5683 5685 5689 5690 5695 5696 5698 5699 5702 5704 5705 5706
5702 5702 5698 5697 5695 5693 5689 5685 5682 5678 5674 5669 5667 5665 5663 5659 5657 5654 5653 5651 5649 5650 5651 5653 5652 5654 5661 5664 5660 5666 5670 5676 5677 5677 5678 5682 5686 5688 5689 5690 5692 5695 5695 5693
5700 5698 5695 5695 5693 5691 5687 5683 5680 5676 5673 5669 5666 5663 5661 5660 5659 5658 5654 5653 5652 5650 5655 5652 5651 5654 5657 5661 5663 5664 5668 5670 5672 5670 5670 5671 5676 5679 5680 5681 5683 5685 5685 5684
5696 5695 5693 5691 5690 5687 5685 5680 5677 5675 5672 5669 5665 5664 5660 5659 5658 5656 5656 5654 5654 5650 5651 5649 5654 5654 5655 5657 5658 5661 5664 5666 5668 5667 5668 5667 5668 5671 5672 5672 5674 5675 5675 5675
5693 5693 5690 5689 5687 5684 5682 5677 5674 5672 5671 5668 5664 5664 5660 5658 5657 5656 5655 5653 5652 5650 5650 5653 5654 5655 5654 5656 5659 5661 5661 5660 5664 5662 5665 5664 5663 5665 5665 5666 5666 5665 5667 5666
5690 5689 5686 5685 5684 5680 5678 5674 5670 5668 5667 5665 5662 5661 5659 5656 5654 5654 5655 5654 5652 5654 5653 5652 5652 5653 5655 5657 5657 5657 5658 5659 5661 5659 5660 5659 5658 5660 5660 5660 5658 5659 5659 5659
5686 5685 5683 5682 5680 5677 5674 5670 5667 5664 5663 5662 5660 5657 5656 5655 5653 5651 5651 5652 5653 5651 5652 5652 5652 5652 5652 5653 5652 5653 5654 5653 5653 5653 5654 5654 5654 5656 5656 5655 5655 5653 5653 5651
5681 5681 5678 5676 5673 5672 5671 5667 5663 5660 5658 5658 5657 5654 5652 5652 5651 5650 5648 5648 5648 5649 5648 5648 5647 5648 5649 5649 5650 5649 5649 5649 5649 5648 5649 5649 5648 5648 5647 5646 5645 5644 5644 5642
5677 5676 5674 5671 5669 5668 5667 5662 5659 5656 5654 5653 5652 5651 5648 5647 5647 5647 5646 5645 5645 5644 5644 5643 5644 5645 5645 5645 5643 5644 5645 5646 5644 5644 5645 5646 5646 5645 5644 5644 5644 5642 5641 5641
5672 5671 5669 5667 5665 5663 5663 5658 5654 5652 5650 5648 5647 5647 5645 5644 5643 5642 5642 5642 5642 5641 5640 5641 5641 5641 5642 5643 5642 5642 5643 5643 5643 5642 5641 5640 5638 5637 5637 5636 5635 5633 5632 5631
5666 5666 5663 5661 5661 5658 5657 5652 5648 5646 5645 5644 5642 5641 5640 5640 5638 5637 5637 5637 5638 5637 5637 5638 5638 5639 5639 5639 5638 5638 5637 5637 5637 5636 5635 5634 5633 5633 5632 5631 5630 5629 5627 5626
5660 5659 5658 5655 5654 5654 5652 5647 5643 5641 5641 5639 5637 5636 5635 5634 5633 5633 5632 5632 5632 5633 5635 5636 5636 5635 5634 5635 5636 5636 5635 5635 5634 5634 5633 5631 5630 5628 5628 5626 5626 5623 5621 5618
5653 5652 5652 5650 5648 5649 5649 5642 5638 5636 5637 5633 5632 5630 5630 5628 5628 5628 5627 5628 5627 5628 5629 5629 5631 5631 5631 5632 5633 5633 5633 5632 5631 5631 5631 5630 5628 5627 5625 5622 5619 5617 5613 5610
5646 5645 5644 5644 5642 5642 5642 5638 5634 5632 5632 5628 5627 5626 5624 5623 5624 5623 5623 5624 5624 5625 5625 5626 5627 5628 5629 5630 5630 5630 5629 5629 5628 5628 5627 5625 5624 5621 5619 5616 5613 5611 5607 5604
5639 5639 5639 5637 5636 5636 5633 5632 5629 5627 5624 5623 5622 5621 5620 5619 5619 5619 5619 5620 5621 5623 5623 5625 5626 5626 5627 5627 5627 5627 5627 5627 5627 5626 5625 5623 5621 5618 5615 5611 5607 5603 5598 5594
5632 5631 5631 5632 5631 5629 5626 5623 5621 5621 5620 5618 5617 5615 5615 5615 5615 5616 5617 5618 5619 5621 5622 5623 5623 5624 5624 5625 5625 5625 5624 5623 5622 5620 5618 5615 5612 5608 5605 5601 5597 5593 5586 5580
5623 5622 5623 5624 5625 5621 5619 5617 5614 5615 5614 5612 5611 5610 5610 5610 5611 5612 5613 5613 5615 5618 5618 5619 5619 5620 5621 5621 5620 5619 5618 5616 5614 5612 5609 5607 5603 5599 5594 5589 5585 5579 5573 5567
5615 5615 5617 5616 5616 5611 5613 5610 5607 5607 5608 5606 5605 5604 5605 5605 5606 5607 5608 5609 5611 5612 5613 5615 5615 5615 5617 5618 5617 5615 5613 5611 5609 5606 5603 5600 5596 5591 5587 5581 5575 5569 5561 5552
5608 5609 5608 5606 5607 5604 5607 5602 5601 5600 5601 5601 5599 5599 5599 5600 5601 5602 5604 5606 5607 5607 5608 5609 5610 5610 5611 5612 5610 5609 5607 5605 5603 5599 5596 5592 5588 5583 5578 5573 5568 5557 5547 5537